Regional Weather Roundup
Issued by NWS

Home | Current Version | Previous Version | Text Only | Print | Product List | Glossary On
Versions: 1 2 3 4 5 6 7 8 9 10 11 12 13 14 15 16 17 18 19 20 21 22 23 24 25 26 27 28 29 30 31 32 33 34 35 36 37 38 39 40 41 42 43 44 45 46 47 48 49 50
000
ASUS45 KREV 221810
RWRNV
NEVADA REGIONAL WEATHER ROUNDUP
NATIONAL WEATHER SERVICE RENO NV
1100 AM PDT FRI SEP 22 2017

NOTE: "FAIR" INDICATES FEW OR NO CLOUDS BELOW 12,000 FEET WITH NO
SIGNIFICANT WEATHER AND/OR OBSTRUCTIONS TO VISIBILITY.

NVZ001-003-004-221900-
WESTERN NEVADA

CITY           SKY/WX    TMP DP  RH WIND       PRES   REMARKS
RENO           MOSUNNY   53  33  46 VRB5      29.97S
6HR MIN TEMP:  42; 6HR MAX TEMP:  53; 6HR PCP: TRACE;

CARSON CITY    PTSUNNY   50  32  50 SE5       29.97F
MINDEN         FAIR      48  30  49 NW6       29.97S
FALLON         PTSUNNY   52  32  46 MISG      29.96S
6HR MIN TEMP:  37; 6HR MAX TEMP:  52;

LOVELOCK       PTSUNNY   51  31  46 CALM      29.96S
6HR MIN TEMP:  27; 6HR MAX TEMP:  51;

HAWTHORNE      PTSUNNY   48  37  66 NW10      29.97S
$$

NVZ002-CAZ072-073-221900-
NORTHERN AND CENTRAL SIERRA

CITY           SKY/WX    TMP DP  RH WIND       PRES   REMARKS
S. LAKE TAHOE  PTSUNNY   42  24  49 CALM      29.95S
6HR MIN TEMP:  31; 6HR MAX TEMP:  43;

SQUAW VLY 8000   N/A     32  28  86 NE3         N/A
SUSANVILLE     SUNNY     50  30  46 SE3       29.99R
BLUE CANYON    MOSUNNY   47  29  49 VRB6      29.97R
MAMMOTH LAKES  FAIR      44  20  39 CALM      29.97R
6HR MIN TEMP:  23; 6HR MAX TEMP:  44;

BRIDGEPORT     FAIR      39  25  57 CALM      29.94F
$$

NVZ030-031-036-221900-
NORTHERN NEVADA

CITY           SKY/WX    TMP DP  RH WIND       PRES   REMARKS
ELKO           PTSUNNY   44  33  65 VRB3      29.92F
6HR MIN TEMP:  37; 6HR MAX TEMP:  44;

WINNEMUCCA     SUNNY     50  30  46 VRB5      29.95F
6HR MIN TEMP:  27; 6HR MAX TEMP:  50;

WENDOVER       CLOUDY    46  37  71 SE5       29.94R
$$

NVZ035-037-221900-
CENTRAL NEVADA

CITY           SKY/WX    TMP DP  RH WIND       PRES   REMARKS
ELY            CLOUDY    34  32  92 S5        29.93S
6HR MIN TEMP:  28; 6HR MAX TEMP:  34;

EUREKA           N/A     39  33  79 NE3       29.95R
6HR MIN TEMP:  33; 6HR MAX TEMP:  39; 6HR PCP:  0.02;

$$

NVZ013-014-221900-
SOUTH CENTRAL NEVADA

CITY           SKY/WX    TMP DP  RH WIND       PRES   REMARKS
TONOPAH        MOSUNNY   50  32  50 NE8       29.95S
6HR MIN TEMP:  37; 6HR MAX TEMP:  50;

$$

NVZ017-020-022-221900-
SOUTHERN NEVADA

CITY           SKY/WX    TMP DP  RH WIND       PRES   REMARKS
LAS VEGAS      MOSUNNY   68  30  24 CALM      29.83F
6HR MIN TEMP:  57; 6HR MAX TEMP:  69;

N. LAS VEGAS   SUNNY     68  27  21 N9        29.83S
6HR MIN TEMP:  57; 6HR MAX TEMP:  69;

NELLIS AFB     SUNNY     67  33  28 CALM      29.82F
6HR MIN TEMP:  54; 6HR MAX TEMP:  67;

HENDERSON      SUNNY     69  29  22 W3        29.86S
6HR MIN TEMP:  52; 6HR MAX TEMP:  69;

MERCURY        SUNNY     61  29  29 MISG      29.88S
6HR MIN TEMP:  44; 6HR MAX TEMP:  61;

$$



USA.gov is the U.S. government's official web portal to all federal, state and local government web resources and services.